Theta_e
314 313 315 314 319 320 323 328 329 329 324 319 318 318 317 320 320 318 320 319 319 320 320 323 324 326 330 332 338 342 337 343 346 342 342 336 334 337 336 334 332 334 337 338 338 338 338 337 338 338 339 335 332 331 327 321 323 320 320 329 333 332 332 332 332 332 331 331 332 333 333 334 335 334 333 332 331 330 330 330 326 326 332 332 331 331 330 331 331 331 330 328 328 329 329 329 329
314 315 317 318 321 320 324 332 333 329 323 316 318 320 316 317 318 320 323 322 322 325 328 333 335 334 336 335 334 333 331 336 334 332 336 334 336 337 336 333 331 335 338 338 339 339 339 338 337 338 337 334 331 332 330 325 320 317 319 327 332 332 331 331 331 332 331 331 333 333 332 333 335 334 332 331 331 330 330 329 325 326 331 331 330 330 330 330 331 331 330 328 328 329 329 328 328
315 318 319 320 322 322 328 332 330 327 321 317 324 324 316 318 321 323 325 322 322 328 331 332 334 332 337 337 328 328 331 333 331 332 336 336 337 337 336 333 331 336 337 339 339 339 339 338 338 337 337 334 331 332 332 328 323 319 320 326 331 332 331 332 332 332 331 331 333 332 332 333 335 335 333 331 330 331 331 330 327 329 331 330 329 329 330 330 330 331 331 329 328 328 329 329 328
316 321 321 321 325 329 338 335 331 328 320 320 323 323 325 325 322 325 323 320 323 327 326 323 329 325 330 338 330 331 334 334 334 335 337 337 337 337 336 332 332 336 337 339 339 339 339 338 338 337 338 335 330 332 331 326 324 322 320 321 328 332 331 332 332 332 331 331 334 333 334 335 335 335 332 331 331 329 328 328 328 330 330 329 329 329 329 330 330 331 331 329 328 328 328 328 328
317 322 320 322 327 332 336 328 327 324 318 323 321 320 332 332 324 323 319 318 320 321 319 325 335 327 327 335 333 337 335 335 336 335 337 336 337 337 335 333 332 335 338 339 339 339 338 338 337 337 338 335 331 333 332 328 324 323 320 318 324 330 331 332 332 331 331 331 333 334 334 334 334 333 332 331 330 328 327 326 328 329 328 328 328 329 329 329 329 331 330 329 329 329 328 327 327
319 322 321 320 319 321 325 317 319 323 321 325 322 321 331 330 322 321 318 316 317 315 317 325 334 333 334 333 331 334 334 335 337 336 336 336 338 336 335 332 331 336 338 338 339 339 338 337 337 337 338 334 331 332 333 330 326 323 322 320 321 326 330 331 331 331 331 331 332 332 332 333 334 333 332 330 329 329 327 327 328 328 328 328 328 329 329 329 330 331 330 328 330 329 328 326 326
319 323 325 323 319 321 328 324 325 326 318 317 320 323 328 327 321 321 318 315 316 315 318 325 331 335 334 331 331 332 333 335 336 337 337 337 338 336 334 331 330 336 337 338 339 339 338 337 337 337 337 333 329 332 333 331 328 324 322 322 322 324 328 331 331 331 331 332 331 331 331 333 333 332 332 331 331 330 328 327 327 327 328 328 328 329 329 329 330 331 330 329 329 327 326 325 325
321 324 327 330 328 329 330 325 326 325 315 313 318 323 326 325 323 320 319 318 316 317 324 328 328 331 328 329 337 334 333 335 335 338 337 337 338 336 335 331 330 335 337 337 338 339 338 337 337 337 336 331 329 333 332 331 328 324 322 321 324 325 328 329 330 331 331 331 331 330 330 331 331 331 330 331 332 331 329 327 326 327 327 328 328 328 329 329 329 330 330 330 328 326 325 325 325
320 320 325 329 327 329 329 319 317 319 317 318 318 322 323 322 321 318 319 318 314 320 328 328 325 322 324 331 339 334 333 336 336 338 337 337 338 337 335 333 332 335 338 337 338 339 338 338 337 337 336 331 329 333 332 332 330 325 323 320 321 324 327 328 328 331 331 331 331 330 330 330 330 329 329 331 332 330 328 326 326 326 327 328 328 328 329 329 329 330 330 329 328 326 325 324 324
321 320 323 329 329 323 320 317 318 320 317 319 318 321 321 319 318 316 319 315 315 322 322 324 328 325 327 336 339 333 334 335 336 338 338 338 338 338 336 335 334 334 337 337 338 338 338 338 337 337 336 332 328 332 332 332 332 327 323 321 320 320 323 323 325 328 330 331 330 330 330 330 331 329 329 331 330 329 328 325 324 326 328 328 328 329 329 329 329 330 330 329 328 326 325 324 324
328 327 329 332 330 319 317 319 322 328 321 319 319 320 320 316 317 316 317 314 315 319 316 319 330 337 335 340 338 331 333 335 338 339 338 339 338 338 337 336 335 334 336 337 337 338 338 338 338 337 336 333 327 331 332 331 333 329 324 322 320 318 318 318 319 323 326 329 330 330 329 329 330 329 329 330 330 329 327 325 324 326 328 326 326 328 329 329 330 330 329 327 326 325 325 324 324
326 330 342 338 327 320 323 323 321 334 330 322 320 319 318 314 315 317 316 316 317 318 318 317 326 337 340 343 337 328 332 337 337 339 339 339 339 338 337 336 336 334 334 336 337 337 338 338 338 337 337 334 326 327 331 331 332 331 326 323 321 319 317 317 316 318 322 326 329 329 328 328 329 328 328 329 329 328 327 325 324 327 327 325 325 327 328 328 329 329 327 324 325 324 324 323 323
332 333 341 329 321 322 324 321 319 328 329 326 321 314 314 314 316 318 319 318 318 319 316 316 326 335 338 340 334 329 333 337 338 339 339 339 339 339 337 337 336 335 335 336 336 337 337 337 337 336 337 334 327 325 328 330 331 330 328 325 322 320 318 317 316 316 319 323 327 328 328 328 329 329 328 327 327 327 327 325 324 326 326 326 326 327 327 327 327 328 326 324 324 323 323 324 324
333 339 340 323 317 323 323 319 319 321 323 326 320 313 312 314 317 318 319 319 318 319 311 314 327 334 332 329 333 340 338 336 338 339 339 340 339 338 338 338 337 335 335 336 336 336 337 337 336 335 335 335 329 325 328 331 331 330 330 327 324 322 319 318 316 315 317 320 323 325 326 327 329 328 327 327 327 326 326 324 324 325 326 326 326 325 325 326 326 326 325 324 324 323 324 324 324
326 339 343 329 318 319 320 317 322 323 325 325 316 314 315 312 314 317 318 320 318 313 310 314 321 324 326 324 329 340 336 335 338 339 340 340 339 339 339 338 337 335 335 336 336 336 336 336 335 333 334 334 330 327 329 331 332 331 330 329 326 323 322 320 318 316 316 317 319 323 325 325 327 327 326 326 326 326 324 324 324 325 325 325 325 324 325 325 324 324 324 324 324 324 324 324 324
328 339 336 327 318 317 317 316 320 321 324 322 312 312 316 312 312 315 314 316 315 311 316 318 316 321 326 325 324 327 332 337 338 339 340 339 339 339 339 338 337 336 336 336 337 336 336 336 335 334 332 333 331 328 329 331 332 331 331 331 328 325 324 322 321 317 315 315 317 321 322 322 323 325 325 324 325 325 323 323 323 325 324 324 324 323 323 323 322 322 322 323 323 323 323 323 323
328 339 334 322 318 319 317 316 319 321 325 321 313 312 315 314 311 311 309 313 316 315 326 323 317 326 331 328 323 324 333 337 337 339 339 339 339 338 338 337 336 336 337 336 337 336 336 336 336 334 331 331 331 329 328 330 332 332 331 331 330 327 325 324 322 319 315 314 315 318 319 320 319 321 322 321 324 324 324 322 321 324 324 323 324 321 322 322 321 322 321 321 321 322 322 322 323
332 339 333 321 320 322 322 321 319 321 323 317 315 314 315 316 313 311 310 316 318 316 324 324 323 327 327 326 323 327 335 336 338 338 338 338 338 338 338 337 336 337 337 338 337 337 336 336 336 335 331 329 329 328 327 327 331 333 331 331 331 329 326 325 324 321 318 315 314 315 316 317 317 318 319 318 321 323 323 320 318 321 323 323 323 321 321 322 321 321 320 320 320 321 321 321 322
336 334 325 327 332 323 320 323 318 316 318 317 316 313 314 316 314 312 313 317 317 317 319 320 327 326 325 327 325 331 336 336 338 337 337 338 338 338 338 338 336 336 337 338 338 337 337 336 336 336 333 329 328 328 325 324 329 332 332 332 331 330 329 326 325 323 321 319 315 314 313 314 314 315 316 315 317 320 320 319 317 318 320 322 322 320 320 321 321 321 320 320 320 320 320 321 321
328 326 321 331 337 323 317 321 318 315 316 317 316 312 313 314 313 311 315 318 315 320 320 318 325 329 334 330 326 332 335 335 336 336 337 336 338 338 338 338 336 336 336 337 337 338 337 336 336 336 335 333 331 329 326 324 327 331 331 331 331 331 330 328 327 324 324 322 319 316 313 311 310 311 313 313 314 316 317 318 317 317 317 318 319 318 319 320 319 319 318 319 319 319 319 319 319
319 323 325 326 326 320 317 318 317 316 314 317 316 313 313 312 311 313 316 318 317 321 320 319 323 335 343 330 327 332 333 334 335 335 336 335 337 337 338 337 336 336 336 336 337 337 337 336 336 336 336 335 334 332 327 325 326 330 331 331 331 331 331 330 329 326 325 324 322 320 316 313 309 308 309 310 311 311 313 314 316 316 315 314 314 315 316 317 316 315 316 318 318 318 318 318 318
316 317 320 321 319 316 315 316 316 314 312 315 316 314 313 311 312 315 318 319 322 319 318 321 321 336 345 332 328 331 331 333 334 334 334 334 336 336 337 337 336 336 336 336 336 337 337 336 336 336 336 335 336 334 331 327 325 328 330 329 329 331 331 330 330 329 327 326 324 323 320 317 313 309 306 307 308 307 309 310 311 313 313 312 311 312 314 314 313 314 315 317 317 317 317 317 317
318 317 315 318 319 315 315 315 314 312 314 316 316 313 312 313 313 314 316 319 321 315 314 314 315 327 334 329 329 331 332 332 333 334 333 333 334 335 336 336 337 336 336 337 335 336 336 336 336 336 336 335 336 336 333 330 326 326 328 327 327 329 330 331 330 330 329 328 326 325 323 321 319 315 309 307 306 306 307 307 307 308 310 311 311 311 311 312 312 313 314 316 316 316 317 317 317
322 319 315 316 315 314 314 314 313 313 316 316 313 311 312 316 314 310 312 317 316 309 306 305 310 321 326 328 330 331 331 332 333 334 334 334 334 334 336 336 336 336 336 337 335 335 335 336 336 335 336 335 335 336 335 332 329 326 326 327 326 327 329 330 330 330 330 329 328 327 325 323 322 320 315 310 307 306 306 306 305 305 306 309 311 310 310 311 312 312 314 315 315 316 316 317 317
320 319 315 315 313 314 314 314 317 315 314 313 311 313 314 314 311 310 315 318 313 310 314 315 318 325 328 330 332 330 330 331 332 333 333 334 333 334 335 335 336 336 336 336 336 335 335 336 336 336 335 335 335 335 335 334 332 329 327 328 327 326 327 328 329 330 330 329 329 329 327 326 324 323 321 316 311 308 306 306 305 305 305 306 309 310 310 311 311 312 312 314 315 315 316 316 316
318 318 317 315 314 315 314 315 319 318 314 313 313 316 315 311 310 314 319 317 312 316 333 336 329 332 331 331 331 328 329 329 330 332 333 333 333 333 333 335 335 335 335 335 336 335 335 335 335 336 335 335 335 334 334 335 334 332 329 328 327 327 326 327 328 329 330 330 329 329 328 327 326 325 324 321 317 313 309 306 305 305 305 305 307 309 311 311 310 311 311 312 313 314 315 315 314
316 319 318 317 316 316 315 315 317 317 315 314 315 316 316 312 312 316 317 312 309 321 344 337 332 337 332 330 329 326 327 327 329 330 331 332 332 333 333 334 334 335 335 334 335 335 334 335 335 336 336 335 334 334 333 333 334 333 333 330 328 328 326 326 327 328 329 330 329 329 329 328 328 326 325 323 321 318 313 308 306 306 305 305 306 308 311 311 311 311 310 311 312 313 313 312 312
315 318 317 317 318 315 315 316 316 317 314 313 315 315 315 313 314 320 316 309 309 321 342 338 335 336 328 330 329 325 325 326 328 328 330 331 331 333 332 333 334 334 335 334 334 334 334 334 334 336 337 336 334 334 333 333 333 332 333 332 330 329 328 328 328 328 328 328 329 329 329 329 329 328 326 325 323 321 318 313 308 306 306 306 306 307 310 312 312 311 311 311 311 312 311 311 312
315 317 315 318 321 316 313 316 315 315 313 313 315 312 315 315 317 323 315 310 312 317 329 335 335 331 327 329 328 326 325 325 327 327 328 329 331 332 332 333 333 333 334 334 334 333 334 333 334 335 336 337 335 334 333 333 333 332 332 332 332 331 329 329 328 329 329 328 329 329 330 329 329 329 327 326 324 323 322 318 313 308 306 305 305 305 309 312 312 312 311 310 311 311 310 311 312
315 315 317 319 320 315 312 315 315 314 314 314 312 311 319 319 316 318 312 309 313 315 320 324 326 325 323 325 327 327 323 323 325 326 328 328 329 330 331 333 332 333 333 333 334 334 334 333 333 334 334 335 335 335 334 333 333 333 333 332 332 331 330 330 329 329 330 330 329 329 330 329 329 329 328 327 326 324 323 322 319 314 308 305 305 304 307 311 312 312 311 310 310 309 309 311 312
316 312 319 322 315 314 315 314 316 313 312 312 309 312 320 318 314 312 310 311 313 315 320 319 319 319 317 319 322 326 323 322 324 325 326 327 328 329 329 331 331 332 332 332 334 333 334 333 333 333 333 334 335 335 334 334 334 333 333 333 333 333 332 332 331 330 330 330 330 329 330 329 330 329 328 328 327 326 326 325 325 322 316 308 304 304 306 309 312 312 311 310 309 308 309 310 312
321 311 320 322 312 318 320 314 318 316 312 313 310 314 319 317 316 312 308 313 314 315 321 319 318 317 314 314 315 319 319 317 320 323 326 325 327 327 328 329 329 330 331 332 332 333 334 334 334 333 333 334 334 335 334 334 334 334 334 334 334 334 333 333 332 332 331 331 330 330 330 330 330 330 329 328 328 328 327 327 327 327 324 317 309 304 304 308 311 312 311 310 308 308 308 309 311
324 314 318 321 314 319 318 313 316 316 314 315 312 314 319 317 318 316 309 313 314 316 322 321 320 318 315 313 310 312 312 312 313 315 321 325 326 327 327 327 328 328 329 330 331 331 332 333 334 334 333 334 334 335 334 334 334 334 335 334 335 334 334 334 334 334 333 332 331 331 331 331 331 331 330 329 329 329 329 328 328 328 327 324 317 309 305 306 309 312 311 309 309 308 308 308 310
320 318 318 318 317 316 315 316 314 313 315 316 314 315 319 319 320 319 312 311 313 316 322 322 321 321 318 315 311 310 310 311 309 308 314 321 323 326 326 326 326 327 327 328 329 329 331 332 332 334 334 334 334 335 335 334 334 334 335 336 336 335 335 335 335 334 334 333 333 332 331 331 331 331 330 330 329 329 329 329 328 328 327 327 324 319 313 308 308 310 310 309 309 309 309 310 311
318 319 316 315 316 313 315 320 314 312 315 316 317 316 319 320 318 317 313 310 314 317 318 317 317 319 318 316 315 312 310 311 309 306 308 312 315 319 321 324 324 325 326 325 326 327 328 330 330 332 333 333 333 334 335 335 334 334 335 336 336 336 336 336 335 335 334 334 334 333 332 332 332 331 331 330 329 329 329 329 329 328 326 326 325 321 315 310 308 309 310 309 309 310 311 312 312
320 321 320 321 321 317 318 319 314 313 316 317 319 318 319 320 318 319 316 311 313 315 316 316 316 317 316 315 314 312 312 312 308 305 307 308 309 312 313 316 319 321 323 324 324 325 326 327 329 330 331 332 333 333 334 335 335 335 335 336 336 336 336 336 336 335 335 335 334 334 333 332 332 331 331 331 330 330 329 329 328 328 325 322 320 316 312 309 309 309 310 310 310 310 310 310 311
319 320 324 324 321 319 317 316 315 313 316 319 320 320 320 319 317 319 315 310 313 317 318 318 317 316 315 314 314 312 312 311 307 306 308 308 308 309 309 310 312 314 316 320 321 322 323 325 326 327 328 330 332 333 333 334 334 334 335 335 335 335 336 336 336 336 335 335 335 334 334 333 333 332 332 331 331 330 329 328 327 327 327 324 321 320 318 314 310 309 310 310 310 310 311 310 310
319 319 322 322 319 320 316 314 316 313 314 318 319 320 320 319 318 317 314 312 315 318 317 316 316 314 312 313 313 312 310 308 307 307 307 307 309 308 309 309 308 310 312 314 317 319 321 323 324 325 326 327 329 330 331 332 332 333 333 333 334 334 334 335 335 335 335 335 335 335 334 334 334 333 332 332 332 330 330 329 328 327 327 324 321 319 317 313 309 309 308 309 309 309 310 310 308
323 320 322 322 319 320 316 314 316 313 315 320 321 321 320 317 318 316 313 314 314 314 314 313 313 312 311 311 311 311 310 310 310 308 305 306 308 308 308 309 309 309 310 311 313 317 319 321 323 323 324 325 326 328 330 330 331 331 332 331 332 332 333 333 333 333 334 334 334 335 335 334 334 334 333 333 333 332 331 330 330 328 327 325 323 320 316 312 310 309 308 308 308 307 307 307 307
324 324 323 321 319 320 319 316 315 313 313 318 321 319 317 317 320 319 311 309 311 310 312 312 310 311 311 309 310 310 310 311 312 310 305 303 305 307 307 308 309 309 309 310 311 314 317 319 321 322 323 324 325 326 327 329 330 330 331 331 331 331 331 332 332 332 332 332 333 334 334 334 334 334 334 333 333 333 333 331 329 328 328 327 325 323 320 318 318 316 312 309 308 307 305 305 308
320 329 333 325 323 323 319 316 317 316 312 314 316 316 322 326 328 326 313 309 313 310 312 315 312 309 309 308 309 309 310 310 310 312 309 304 303 305 306 306 308 308 308 310 311 312 315 318 320 322 323 324 325 326 326 328 329 330 330 330 330 330 330 330 330 331 331 331 332 332 332 333 333 334 334 333 334 333 333 332 331 329 329 327 324 322 321 321 321 318 314 311 309 308 307 306 306
317 327 332 327 330 328 320 318 320 320 315 311 310 314 330 336 330 328 319 316 319 313 313 317 314 310 310 311 310 309 309 309 309 311 309 303 301 304 306 306 306 307 308 309 310 312 314 316 319 321 323 324 325 326 326 327 328 329 329 329 329 329 329 329 329 329 329 330 330 330 330 331 332 333 333 333 333 333 333 332 331 330 329 327 325 324 323 323 320 316 313 311 310 310 309 306 305
317 319 321 323 332 329 323 321 317 319 315 308 310 314 322 327 325 326 319 317 321 316 315 316 314 314 315 316 317 315 313 314 315 315 310 305 304 305 307 309 308 308 308 308 309 310 312 315 318 320 322 323 324 325 326 327 328 328 328 328 328 328 328 328 328 328 328 328 328 328 329 329 330 330 331 332 332 332 332 332 331 331 330 328 327 326 325 324 320 317 315 313 312 312 310 307 306
317 315 319 325 330 327 328 327 322 322 315 314 322 319 315 319 320 322 316 316 322 318 316 317 316 316 317 319 322 322 321 320 320 323 320 310 305 306 308 310 311 310 310 309 308 309 311 313 316 319 321 322 324 325 325 326 327 328 328 328 328 328 328 328 328 328 327 327 327 328 328 328 329 329 329 330 330 330 331 331 331 331 331 329 327 327 326 324 321 319 317 315 313 311 310 309 308
318 313 318 323 325 329 334 335 331 323 312 319 328 315 312 322 324 323 315 313 320 318 314 317 316 315 317 319 322 323 323 320 318 322 320 310 306 308 310 310 311 311 311 310 309 309 310 313 316 318 321 322 323 324 325 326 327 327 328 328 328 328 328 328 327 327 326 326 326 327 327 327 327 327 328 328 328 328 328 330 331 330 330 329 328 327 326 325 323 322 321 319 317 314 313 312 310
316 310 315 319 321 326 329 331 330 321 315 326 326 312 311 320 327 329 315 309 318 318 315 316 316 315 315 318 320 322 322 320 320 317 309 306 308 309 310 311 311 311 311 310 310 310 311 313 315 318 320 322 323 324 325 325 326 327 327 327 328 328 328 327 327 326 326 325 325 325 325 325 325 325 325 326 326 326 326 327 328 329 330 329 329 329 327 326 324 323 322 321 320 318 316 313 311
312 316 320 319 324 328 327 327 324 317 324 330 319 313 313 312 323 329 314 309 315 316 315 316 318 318 316 318 320 322 324 323 325 321 308 305 309 311 311 312 312 311 312 311 311 311 311 312 314 316 318 320 321 323 324 324 325 326 326 327 327 327 327 326 325 325 325 325 325 325 325 324 324 324 324 324 324 324 325 325 326 326 328 328 329 329 327 326 325 324 324 322 321 318 316 313 310
317 325 325 318 324 328 328 330 320 315 330 326 313 312 313 311 320 320 314 315 315 314 315 315 316 318 319 321 320 321 325 324 325 325 316 308 307 309 310 311 312 312 312 312 312 312 312 312 313 314 315 317 318 320 322 323 324 325 326 326 326 326 326 326 325 325 325 325 324 324 324 323 323 323 322 322 322 323 323 323 323 323 324 326 327 327 326 325 325 325 324 323 322 320 317 314 311
320 322 324 321 323 321 325 332 322 319 326 316 310 313 312 314 318 315 316 319 316 315 315 314 315 317 320 320 320 322 322 323 323 323 321 314 307 306 308 309 311 312 312 312 313 312 312 313 312 313 313 313 315 316 317 319 320 322 323 324 324 325 325 325 325 325 325 324 324 323 323 322 322 322 321 321 321 321 321 321 321 321 321 322 323 325 325 325 325 325 324 323 322 321 319 317 314
317 317 321 323 323 317 320 324 316 316 320 311 309 312 313 317 316 315 317 313 313 314 313 315 316 316 319 319 321 324 320 321 323 321 323 319 308 305 308 309 310 311 312 312 312 312 312 312 312 312 313 312 313 313 313 314 315 316 317 319 320 321 322 323 323 323 323 323 322 322 322 321 321 321 320 320 320 320 320 319 319 319 319 319 320 321 323 324 324 325 324 323 322 321 320 319 317
315 316 316 318 327 326 322 322 320 321 321 313 309 312 321 320 309 313 317 312 313 313 311 314 314 314 319 319 321 324 320 322 323 322 321 314 306 307 309 309 310 311 311 312 313 312 312 311 312 312 312 312 312 312 312 312 312 312 313 313 314 315 317 318 318 319 320 320 320 320 320 319 319 319 319 318 318 318 318 317 317 317 317 317 317 318 319 320 321 322 322 322 322 322 320 320 319
315 314 313 314 322 325 317 314 319 321 317 315 312 316 325 318 307 312 312 310 313 311 309 311 311 314 319 318 320 321 322 323 322 322 321 311 306 308 308 308 309 310 310 311 312 313 313 312 312 311 311 311 311 312 312 311 311 311 311 311 312 312 312 313 314 315 315 316 316 317 317 317 317 317 317 317 316 316 316 316 316 315 315 315 315 316 316 316 317 317 318 319 319 319 318 317 317
315 313 317 318 317 322 317 308 309 312 312 315 314 317 323 316 311 315 311 309 311 309 310 311 311 315 318 317 318 318 320 320 318 320 318 310 306 307 307 308 308 309 309 310 311 312 313 313 312 312 311 311 311 311 311 311 311 311 311 311 311 311 311 312 312 312 313 313 314 315 315 315 315 315 316 315 315 315 315 315 315 314 314 314 314 314 314 314 314 314 314 315 315 315 316 315 315
317 319 319 314 311 318 319 313 315 316 315 318 315 314 320 317 316 319 313 310 311 311 312 313 314 318 317 316 316 315 316 316 316 316 312 306 304 306 306 306 308 309 309 310 310 310 311 311 311 311 311 310 310 310 310 309 310 310 310 310 310 310 310 311 311 311 312 312 312 313 313 314 314 314 314 315 314 314 314 314 314 314 314 314 313 313 313 313 313 313 312 313 313 314 314 314 315
317 320 316 314 317 320 315 313 321 318 313 321 320 312 311 313 320 323 314 311 314 313 314 315 316 318 318 316 315 315 316 316 317 318 315 307 304 305 306 306 308 309 309 310 310 310 310 310 310 310 310 310 309 309 309 308 308 308 309 309 309 309 309 310 310 310 310 311 311 311 312 312 313 313 313 314 314 314 314 314 313 313 313 313 313 313 313 313 312 312 312 312 312 312 313 312 312
311 312 309 315 325 324 316 313 318 316 312 319 321 317 316 317 319 321 313 313 314 312 314 317 316 318 318 316 316 317 318 319 318 319 317 308 303 305 305 306 307 308 309 310 310 310 310 309 310 310 310 309 309 309 308 308 308 308 308 308 308 308 308 309 309 309 309 310 310 310 311 311 311 312 312 312 313 313 313 313 313 313 313 313 312 312 312 312 312 312 312 312 311 311 311 311 311
313 313 312 315 317 315 315 314 314 317 319 320 319 320 327 322 314 315 313 310 310 312 316 317 316 317 316 315 316 316 316 316 315 317 317 307 303 305 305 306 308 308 309 309 309 310 309 309 310 309 309 309 309 309 309 309 309 308 308 308 308 308 308 308 308 308 309 309 309 309 309 309 310 310 310 311 311 311 312 312 312 312 312 312 312 312 312 312 312 312 311 311 311 310 310 310 311
313 314 314 315 315 315 317 315 312 313 316 321 317 315 325 321 307 309 312 308 309 313 315 316 316 315 313 312 314 315 316 316 317 321 315 304 302 305 304 306 307 307 308 308 308 309 308 309 308 308 308 308 308 308 309 309 309 309 309 309 309 308 308 308 308 308 308 308 308 308 308 308 309 309 309 309 310 310 310 311 311 311 311 311 312 311 311 311 311 311 311 311 310 309 309 309 310
Wind_Speed
10 9 9 7 6 2 3 5 2 3 4 2 1 1 2 2 2 2 2 1 1 2 3 1 3 6 4 3 6 6 4 4 5 4 3 3 10 22 16 16 22 20 19 18 18 18 17 17 15 13 11 10 9 10 11 12 13 13 14 15 15 14 14 14 14 14 14 14 13 10 11 12 12 12 12 13 13 12 12 12 12 15 17 16 16 15 15 15 15 15 16 17 17 18 18 18 18
8 7 8 5 6 3 1 3 2 3 5 1 3 2 2 1 2 5 6 5 4 2 3 4 5 5 4 3 4 4 1 0 4 3 0 4 16 19 13 19 22 20 19 18 19 18 18 18 16 15 12 10 10 10 11 12 13 13 14 15 15 13 14 14 14 14 14 14 12 10 11 12 12 11 12 13 13 13 13 13 12 15 16 16 16 15 15 15 15 15 16 17 18 19 19 19 19
6 6 6 2 4 5 2 3 2 1 4 2 4 3 1 2 5 7 8 7 5 4 4 4 4 4 4 4 3 2 1 1 3 2 2 11 15 15 16 20 21 20 19 19 19 17 18 17 16 15 12 10 10 11 10 11 12 13 14 14 14 13 13 14 13 13 13 13 11 10 11 12 12 12 13 13 13 14 13 13 14 16 16 16 16 15 15 14 15 15 15 16 17 18 19 19 19
5 6 6 2 3 4 3 4 2 4 3 3 3 4 3 5 7 6 6 7 6 4 1 2 2 1 2 2 0 1 1 2 4 3 4 12 14 16 19 21 22 20 19 19 18 17 17 17 16 15 13 11 10 11 10 11 12 12 13 13 15 14 13 14 13 13 13 13 11 11 12 12 12 12 12 13 13 12 12 14 16 17 16 16 15 14 14 15 15 15 15 15 16 18 18 18 18
4 6 6 5 3 1 3 3 2 4 4 5 2 5 5 6 6 5 4 4 6 2 1 2 2 1 2 2 1 1 2 1 5 5 6 11 14 19 20 23 23 20 20 18 17 17 17 17 17 15 13 10 10 12 10 11 12 12 12 12 14 14 14 14 13 13 13 13 12 12 12 12 11 11 12 13 12 12 14 15 16 16 16 15 15 14 14 15 15 15 15 15 16 17 16 16 16
2 5 8 7 3 1 3 1 1 2 5 5 3 5 5 6 6 5 2 2 4 3 3 1 2 2 2 0 1 3 2 1 5 5 9 12 15 20 20 23 22 20 20 17 17 17 17 18 17 15 12 10 10 12 11 10 11 12 12 12 13 14 14 13 13 12 12 13 12 12 11 11 11 11 12 12 11 12 15 16 16 15 15 15 14 13 14 14 14 15 14 14 15 14 13 14 15
2 2 5 6 2 2 3 3 4 3 2 4 3 4 5 6 5 6 4 2 2 2 1 1 3 5 1 2 1 2 1 2 3 4 10 13 16 21 21 23 22 21 19 17 17 16 17 17 16 15 12 11 10 12 11 10 11 12 11 12 12 13 13 13 13 12 12 12 12 12 11 11 11 11 12 11 12 14 15 16 16 15 15 14 14 14 14 14 14 14 13 13 13 12 12 14 15
5 2 1 3 1 3 3 2 4 2 0 2 3 4 5 6 6 6 6 3 2 1 1 1 2 4 1 1 2 3 3 2 2 5 12 14 18 21 21 23 22 21 19 18 18 17 17 17 16 15 13 11 11 12 11 11 11 12 12 11 12 12 13 12 12 12 12 11 11 11 10 11 11 11 10 11 13 13 13 15 15 15 14 14 14 14 14 13 13 13 13 13 12 12 13 14 15
6 3 0 2 1 3 2 1 2 2 2 4 3 4 2 5 6 5 5 2 1 2 2 2 2 2 1 2 0 4 3 2 3 8 13 15 20 20 21 23 21 22 19 18 18 17 17 17 16 15 13 11 12 12 11 11 11 12 12 11 12 12 12 11 12 13 12 12 11 11 11 11 11 11 10 11 12 11 11 13 15 14 14 14 14 14 13 13 13 12 12 12 12 12 13 14 15
5 4 1 2 2 2 3 1 1 1 3 4 3 4 2 5 5 3 4 2 1 4 1 2 3 2 2 1 1 1 2 2 7 12 13 15 20 19 21 21 20 21 20 19 18 18 18 17 16 14 13 11 12 13 11 12 11 11 11 11 11 11 12 12 13 14 14 13 12 12 12 12 11 12 11 10 11 10 9 11 15 15 14 13 13 14 13 13 13 13 13 12 12 11 12 13 14
3 4 2 3 3 1 2 2 3 3 5 5 2 3 4 5 5 1 1 2 0 4 2 1 3 3 2 1 2 0 1 4 11 15 13 16 19 19 20 20 19 20 20 20 18 19 18 17 15 14 13 12 13 13 12 12 11 11 10 10 11 11 11 11 13 14 16 15 13 13 13 13 11 11 11 10 11 10 9 11 16 16 14 12 11 13 13 13 13 13 13 12 12 11 11 12 12
2 3 4 4 2 2 3 3 3 5 6 4 1 3 4 5 3 3 3 4 2 3 3 3 3 4 4 3 3 1 1 7 13 14 15 17 18 18 19 19 19 19 20 20 19 19 18 17 15 14 14 12 13 13 13 12 12 11 10 9 10 10 10 11 11 13 15 15 14 13 13 13 11 10 11 10 10 10 9 11 16 15 13 11 11 12 12 13 13 13 12 11 11 10 10 10 11
3 1 5 3 2 2 2 3 2 4 5 3 2 1 5 5 3 6 6 4 4 4 3 5 5 5 3 3 3 4 2 11 14 14 16 17 17 18 18 18 19 19 20 20 20 19 18 17 16 15 15 14 13 14 13 13 13 11 10 9 9 10 10 10 10 11 13 13 13 12 12 12 12 11 10 9 9 10 9 11 15 15 13 11 11 11 11 11 11 11 11 10 10 9 8 9 10
3 3 5 2 1 2 3 2 1 1 3 5 2 1 4 2 4 6 7 5 3 5 1 4 6 4 2 2 4 4 5 12 15 16 17 18 18 18 18 18 19 19 20 21 20 19 19 18 17 16 16 15 14 14 14 13 13 11 10 9 8 8 9 9 9 10 11 12 12 12 12 12 12 11 10 10 9 10 11 11 14 14 13 11 10 10 10 10 11 10 9 9 8 8 8 8 8
3 2 4 4 2 1 3 1 2 4 4 5 2 4 4 2 3 4 6 6 4 4 1 3 3 2 3 3 3 5 8 15 17 18 18 18 18 18 18 18 19 19 20 21 20 20 19 19 18 17 17 16 16 15 15 14 13 12 10 9 8 8 8 9 8 9 10 10 11 11 11 12 11 10 10 11 11 10 10 10 14 14 12 11 9 9 10 10 11 9 8 8 8 8 8 8 8
3 4 5 3 2 0 3 1 3 3 5 5 1 4 5 4 3 4 5 4 3 0 1 2 1 2 4 6 3 4 10 17 18 19 19 18 17 17 17 17 19 19 19 21 21 20 20 19 19 18 17 17 17 17 16 15 14 13 11 10 9 8 8 8 8 8 9 10 10 10 10 11 12 11 10 11 11 10 9 11 15 15 11 10 9 9 10 11 11 9 9 8 8 8 8 8 8
3 4 4 3 2 3 4 3 4 4 5 5 2 3 6 3 1 2 3 4 5 1 2 1 1 2 5 5 2 1 13 19 19 21 19 19 18 17 16 17 19 19 20 21 21 21 20 20 19 19 18 18 18 18 17 16 15 14 12 11 10 9 9 8 8 8 8 9 10 10 10 10 10 10 9 10 12 11 10 11 15 16 12 9 9 10 12 12 11 10 9 8 7 7 7 7 8
4 3 3 1 3 3 5 7 7 4 3 5 4 5 7 3 3 2 1 5 4 2 2 2 2 3 4 5 3 7 19 21 21 22 20 19 18 18 18 19 20 20 21 22 22 22 22 21 20 19 19 19 19 19 18 17 17 15 14 12 11 10 10 9 8 8 8 8 9 9 9 9 9 10 9 10 12 11 10 10 13 15 13 12 10 11 13 12 11 10 8 8 7 7 6 7 7
4 3 3 2 5 4 5 7 6 2 1 4 3 3 4 5 4 2 1 1 3 2 2 4 4 5 3 3 6 17 22 22 23 22 20 20 20 20 20 20 21 22 22 23 24 23 23 23 22 21 20 20 19 20 19 18 18 17 16 14 13 12 11 10 9 9 8 8 8 8 9 9 9 9 9 9 11 11 10 9 10 12 12 12 10 11 14 12 11 10 8 8 7 7 6 6 7
2 4 2 5 6 4 4 6 6 3 3 5 3 2 2 4 2 1 3 2 0 4 5 1 3 8 4 1 11 21 21 22 22 21 20 20 21 22 22 23 24 25 25 24 24 24 24 24 23 22 22 21 21 20 20 19 19 18 17 16 15 14 13 12 11 10 9 8 8 8 8 8 8 9 9 10 10 10 10 9 9 10 11 12 10 11 13 12 11 10 9 8 8 7 7 7 7
2 4 3 5 3 1 3 5 6 4 5 6 3 2 1 4 2 1 6 5 3 6 7 8 8 8 5 4 11 19 20 20 20 20 20 20 20 22 24 25 25 25 24 23 24 24 25 25 25 24 24 23 22 22 21 21 20 20 19 18 17 16 15 14 13 12 10 9 9 8 8 8 8 9 10 11 10 10 11 10 10 10 11 12 11 10 11 11 10 10 9 9 8 8 7 7 8
2 1 4 5 3 1 2 3 3 4 5 6 5 4 3 2 0 3 8 6 5 7 7 9 10 8 9 10 12 15 16 17 18 19 19 20 21 22 23 23 23 22 22 23 25 26 26 26 26 26 26 25 24 23 22 22 22 22 21 20 19 18 17 16 15 14 13 11 10 10 9 9 9 9 10 11 11 11 11 11 11 11 12 12 12 11 11 12 11 10 10 9 9 8 8 8 8
2 1 1 3 3 0 2 3 1 4 7 7 6 3 2 2 1 1 6 8 7 4 4 6 6 7 11 13 14 13 13 15 18 22 23 24 24 25 24 23 23 23 23 25 26 26 26 27 27 27 27 27 26 25 23 23 23 23 23 22 21 20 19 19 18 16 15 14 12 12 11 11 11 11 11 12 12 12 12 12 12 12 12 13 13 13 13 13 12 11 11 10 10 9 9 9 8
4 1 1 2 3 1 3 3 0 4 7 6 4 2 1 3 3 1 4 11 6 3 4 4 5 10 13 13 12 13 15 18 22 25 27 27 27 27 25 24 24 23 24 25 26 27 27 28 28 28 28 28 27 26 25 24 24 24 24 24 23 22 21 21 20 18 17 16 15 14 13 13 13 13 13 13 14 14 14 13 13 13 13 13 14 14 14 14 13 13 12 11 11 11 10 10 9
3 3 1 3 2 3 4 2 4 4 3 2 4 3 2 4 3 1 8 11 6 4 2 2 5 9 10 11 12 12 13 17 20 22 24 24 23 22 23 24 23 23 25 27 27 27 28 28 28 29 29 29 28 27 27 26 26 25 25 25 25 24 23 22 21 20 20 19 18 17 16 15 15 15 15 15 15 15 15 15 14 14 14 14 15 16 16 15 15 14 13 13 12 12 11 11 11
2 3 2 3 1 5 3 3 6 4 1 2 5 1 4 3 1 3 8 7 5 1 5 5 6 7 8 9 11 12 11 15 19 21 22 22 20 20 23 25 25 27 28 28 28 29 29 29 29 29 30 30 29 28 28 28 27 27 27 26 26 26 25 24 23 22 22 21 20 19 18 17 16 16 16 16 16 16 16 16 16 15 15 15 15 16 16 16 15 15 15 14 14 13 13 12 12
3 5 5 5 2 5 3 3 5 4 2 3 3 2 5 1 1 4 5 5 3 3 6 3 6 7 8 7 9 11 12 17 20 18 17 18 20 24 25 26 29 31 30 29 30 30 29 29 30 30 30 30 30 29 29 29 28 29 28 28 27 27 26 25 25 24 24 23 22 21 20 19 18 17 17 17 17 17 17 17 17 17 16 16 16 17 17 16 16 16 15 15 15 14 14 13 12
4 6 5 7 5 3 6 4 5 3 2 3 3 2 5 3 1 6 5 6 2 5 4 3 5 6 7 7 7 8 11 16 16 15 17 21 26 29 29 31 33 32 32 33 32 30 29 30 30 31 31 31 31 30 30 29 29 30 29 29 28 28 27 27 27 26 26 25 24 23 22 21 20 19 19 19 18 18 18 17 17 17 17 17 17 17 17 17 17 16 16 16 15 15 14 13 13
3 3 4 5 7 4 5 3 4 3 2 2 2 1 6 3 5 9 5 6 3 5 3 3 5 5 5 6 5 6 10 12 13 17 23 27 29 29 31 34 33 32 34 33 30 30 31 31 30 31 32 32 32 31 31 30 30 30 30 29 29 29 28 28 28 28 27 26 26 26 24 23 23 22 21 20 19 19 18 18 18 18 18 18 18 18 18 18 18 18 17 16 16 15 15 14 13
2 3 4 2 6 4 4 3 3 1 2 3 2 1 7 7 9 9 6 6 3 1 4 5 5 5 5 5 5 6 9 11 15 22 26 27 27 27 30 32 30 31 32 30 30 31 32 31 31 31 31 33 33 32 32 31 31 30 30 30 30 30 29 29 28 28 28 27 27 27 27 26 25 24 22 21 21 20 19 18 18 18 18 19 19 19 19 19 19 19 18 18 17 16 15 15 15
2 3 3 2 1 3 5 3 1 2 0 4 5 2 6 7 9 7 6 5 2 4 6 5 5 5 5 5 6 7 9 13 19 23 25 26 27 27 29 31 29 31 31 30 32 32 32 32 31 31 32 32 33 33 33 32 32 31 31 31 31 31 30 30 29 28 28 28 28 28 27 27 26 25 24 23 22 22 21 20 19 18 19 20 21 21 21 21 21 20 20 19 18 18 17 17 16
4 2 1 3 2 5 7 3 1 3 0 6 7 2 6 7 9 6 5 4 3 6 7 6 6 6 6 6 6 7 8 13 19 22 25 27 28 29 31 32 31 32 32 33 33 31 32 32 32 32 32 33 33 34 33 33 32 32 32 32 32 32 31 31 31 30 29 29 29 28 27 27 27 27 25 25 24 24 23 23 21 19 19 21 22 23 23 23 23 22 22 21 20 20 20 19 19
4 3 3 1 2 3 4 2 3 1 0 4 3 3 4 4 6 7 4 4 3 3 7 7 7 7 6 6 6 7 7 9 14 21 28 30 31 33 34 35 34 33 33 33 33 32 33 33 33 33 33 34 34 34 34 33 33 32 32 32 32 32 32 32 31 31 30 30 30 29 28 27 27 27 28 27 27 26 25 24 22 21 21 22 23 24 25 26 25 25 24 23 22 21 21 21 21
3 3 2 3 3 3 2 2 4 4 2 1 3 1 6 6 7 9 5 1 2 4 7 7 6 7 6 6 6 7 7 8 10 19 28 32 34 36 36 36 36 35 34 33 33 34 34 34 34 35 35 34 34 34 34 34 33 32 32 32 33 32 33 33 32 31 31 31 31 31 30 29 28 28 29 30 30 30 29 27 25 24 24 25 25 26 27 28 28 27 26 25 24 23 24 23 23
4 2 3 2 2 3 3 3 3 4 3 2 2 3 9 11 10 10 6 2 2 7 7 7 7 7 7 6 6 7 7 9 12 19 25 27 30 33 34 36 36 35 35 34 33 33 33 33 34 35 35 34 34 34 34 33 33 33 33 32 33 33 33 33 33 33 33 33 32 31 30 30 30 29 28 30 31 32 33 32 30 29 29 29 29 29 29 30 30 30 29 28 26 25 25 25 24
9 6 5 5 3 4 5 4 4 1 3 2 4 5 9 10 10 12 7 2 1 8 7 7 7 7 7 6 7 7 8 10 13 16 18 20 23 26 28 30 32 33 34 33 32 32 33 34 34 34 36 35 34 33 32 32 32 32 33 32 33 34 34 33 33 33 33 34 34 32 31 31 31 31 31 30 30 31 33 35 34 33 32 31 31 31 31 32 32 33 32 31 29 28 27 26 25
7 5 5 3 3 2 3 3 5 1 3 3 3 4 8 10 11 13 10 4 4 9 9 8 8 7 7 7 8 8 9 10 10 13 15 16 19 21 22 24 25 27 29 31 32 33 35 35 35 35 36 35 34 34 33 32 33 32 32 33 34 33 33 33 33 33 33 33 33 33 33 33 33 34 34 32 31 32 32 32 33 34 33 33 33 32 32 33 33 33 33 32 31 30 30 28 28
6 6 5 1 1 1 2 1 4 3 1 2 2 4 9 10 11 12 9 6 7 9 9 9 9 8 7 7 10 9 8 8 9 12 15 16 17 18 19 20 22 24 27 29 31 33 34 34 34 36 35 34 35 36 35 34 35 34 33 34 33 32 33 33 34 35 34 34 33 33 34 34 34 34 34 34 34 34 32 30 31 33 34 34 34 32 31 32 32 32 31 31 30 30 30 29 29
6 4 5 2 2 2 3 3 4 5 1 3 4 5 9 10 11 12 9 7 8 7 7 8 8 8 8 8 9 8 8 9 8 10 12 14 16 17 18 19 21 24 25 26 28 30 31 32 34 35 35 35 36 36 36 36 36 35 34 32 31 30 31 33 34 34 34 35 35 34 34 34 34 33 34 35 35 34 34 33 34 34 32 32 34 34 32 32 32 31 31 31 29 28 27 27 30
5 4 5 3 2 1 1 2 5 4 2 1 3 4 8 7 7 9 6 5 7 6 6 8 7 8 10 9 7 7 9 10 10 9 9 10 13 14 16 18 20 22 23 24 25 27 29 32 33 34 34 35 34 35 36 36 34 32 32 31 29 28 29 29 30 31 33 34 35 35 35 34 33 32 33 34 35 34 34 35 36 35 32 33 36 37 37 35 34 35 36 36 33 29 27 28 32
1 3 6 4 3 4 2 2 2 3 3 2 3 4 6 5 6 7 4 4 6 6 6 7 5 6 8 7 7 8 8 9 9 9 8 9 12 13 13 14 15 17 20 22 23 24 27 29 31 31 32 32 32 33 33 33 31 30 29 28 26 25 26 26 26 29 31 32 34 36 36 36 34 33 33 34 35 34 34 34 34 35 35 36 37 37 36 36 36 37 38 38 38 34 31 30 31
1 3 6 6 7 6 2 2 3 4 4 4 5 4 5 6 5 7 5 7 8 6 6 8 7 6 6 6 7 7 6 6 7 8 9 10 13 13 11 9 11 13 16 17 19 21 23 25 26 27 28 29 30 29 29 30 30 29 28 27 26 25 25 27 30 31 32 33 35 35 36 36 36 36 35 34 35 35 35 35 35 36 36 35 34 34 35 36 37 38 37 37 38 38 34 30 30
1 4 5 7 7 8 6 4 4 2 1 3 4 3 4 7 6 7 6 8 10 8 8 8 7 7 6 6 6 6 5 5 5 6 7 8 9 10 8 5 5 8 9 11 14 16 18 20 22 23 24 25 26 26 26 27 29 30 30 30 30 29 29 31 34 34 33 33 34 34 35 35 36 37 37 37 36 36 36 36 36 36 35 34 34 35 37 39 38 37 37 37 38 39 37 33 33
3 3 6 8 8 8 6 6 4 2 2 4 5 4 1 5 6 7 6 7 9 8 8 8 7 7 8 7 6 6 5 5 5 6 6 5 5 7 7 5 3 3 3 5 8 10 11 14 17 18 20 21 22 23 24 26 28 30 31 31 32 32 33 34 33 31 31 31 32 33 33 34 35 35 37 38 38 37 36 35 36 36 37 39 39 40 39 38 37 36 35 36 37 38 38 38 35
3 3 7 7 7 7 5 6 4 1 1 3 5 3 1 5 7 6 6 5 7 7 6 7 8 8 8 7 8 7 6 5 4 5 6 7 9 10 8 7 7 6 5 2 1 3 5 8 11 14 15 17 19 20 22 24 26 28 30 31 32 33 34 34 31 28 27 28 29 31 31 32 33 33 34 35 36 37 36 36 35 36 37 38 38 38 38 37 37 37 38 38 40 40 41 42 40
4 6 8 6 6 6 5 5 4 3 3 4 5 3 0 5 7 5 3 2 5 5 5 6 6 6 6 6 7 7 6 5 4 4 6 8 10 12 11 10 10 9 8 6 4 2 1 3 6 10 12 13 15 17 19 22 23 26 29 31 32 33 33 32 29 28 27 26 27 28 29 30 30 31 32 32 33 34 35 36 36 36 36 35 35 36 37 38 38 38 39 40 42 43 44 44 43
7 6 7 7 6 5 4 3 3 4 2 5 5 3 0 2 6 4 1 2 5 4 1 5 6 7 7 7 7 7 6 6 5 5 7 9 11 12 13 12 13 12 10 8 6 5 3 0 3 5 8 10 12 14 17 20 22 24 27 29 31 32 31 29 28 29 29 28 29 29 29 29 29 30 30 30 31 32 33 35 36 37 37 37 37 38 38 38 39 39 39 40 41 42 43 42 42
6 5 6 5 4 4 4 5 4 2 4 6 4 3 1 2 5 3 3 5 5 6 3 4 7 8 8 7 7 7 6 6 6 6 8 10 12 14 15 15 14 13 12 11 9 7 5 3 1 3 5 7 10 12 15 17 20 22 25 27 29 30 29 29 29 30 30 30 31 30 29 29 29 29 29 30 31 31 32 33 35 36 37 38 38 38 38 38 37 38 38 40 41 42 42 40 39
5 5 6 5 2 3 2 3 1 2 5 4 3 2 2 5 7 6 8 8 7 7 6 2 6 7 7 8 7 6 6 6 6 7 7 8 10 14 18 18 17 15 13 11 9 8 7 5 4 4 4 6 8 10 13 15 17 20 22 24 27 28 28 29 30 32 31 30 30 30 30 30 30 30 30 31 31 30 31 32 33 34 35 36 37 38 37 36 36 34 32 35 38 39 39 39 40
4 5 5 4 3 2 2 4 2 3 4 3 3 2 2 4 6 8 11 9 6 6 6 6 6 5 7 7 6 6 6 6 6 6 7 7 9 14 18 21 22 21 18 15 12 9 8 6 5 5 5 5 7 9 11 14 16 17 19 22 24 25 27 29 30 31 31 31 31 30 31 31 31 31 31 30 30 29 30 30 31 32 33 34 35 36 36 36 35 33 32 32 34 36 36 37 39
2 3 5 5 5 4 4 4 3 3 3 2 4 2 3 2 2 6 8 7 5 4 5 5 6 6 6 6 5 5 6 7 6 7 8 8 12 16 19 22 24 24 23 21 18 14 11 9 8 8 8 7 8 9 11 13 14 15 17 19 21 23 25 27 29 30 30 31 31 31 32 31 31 31 30 29 28 28 28 28 29 29 30 31 32 34 36 37 37 36 37 37 37 36 34 34 37
1 2 5 3 4 5 3 3 5 3 0 2 2 3 4 3 4 5 2 5 5 2 1 0 2 4 2 3 4 5 6 6 6 7 7 10 16 20 21 23 25 25 26 24 22 19 16 14 12 11 10 9 9 10 11 12 14 15 16 17 19 21 23 25 27 28 28 29 30 31 31 31 30 30 29 29 28 27 28 27 28 28 28 29 30 31 32 34 35 36 37 38 38 36 34 34 35
2 2 3 4 4 8 6 1 1 3 1 3 1 3 5 3 5 5 4 1 4 5 5 4 3 1 4 5 5 6 6 6 6 6 6 9 15 20 22 24 26 27 28 27 24 21 19 18 17 15 14 12 12 11 12 12 13 14 15 16 17 18 20 23 25 26 27 27 28 30 30 30 30 29 29 28 28 28 28 27 27 28 28 28 29 30 31 32 32 34 35 36 37 36 36 37 37
5 3 5 4 3 5 5 2 3 4 2 4 1 3 4 1 2 5 5 4 2 2 5 6 5 5 6 3 3 4 4 4 4 6 7 9 14 18 20 23 25 27 27 27 26 23 21 20 19 19 19 19 18 17 16 15 14 15 15 15 15 16 17 19 21 23 25 26 28 29 29 30 30 29 29 28 28 28 28 27 28 28 28 28 28 28 29 30 31 32 34 35 35 35 35 37 37
4 4 3 4 4 2 2 3 1 1 2 4 3 3 3 3 4 4 1 7 7 4 6 7 7 7 6 5 4 3 3 4 6 6 7 9 14 18 20 22 25 26 27 26 26 25 24 23 21 21 21 22 21 21 20 19 18 17 16 16 15 15 16 17 19 21 22 24 27 28 28 30 29 29 29 29 28 28 28 28 28 28 28 28 29 28 29 30 31 32 33 34 35 35 35 37 37
4 2 2 2 3 4 2 3 4 3 3 2 4 3 3 6 6 6 7 9 9 8 8 8 8 8 7 7 6 4 5 5 6 7 6 8 14 18 20 22 23 25 26 26 25 25 25 24 23 22 22 21 21 21 22 21 21 21 20 19 18 17 17 17 18 19 21 23 25 26 28 29 29 29 29 29 29 29 29 29 29 29 29 29 29 29 29 29 31 33 34 35 35 34 34 37 37
3 3 3 2 2 2 2 1 2 4 4 3 2 3 5 6 4 6 7 7 8 9 10 8 7 7 7 6 6 5 5 5 5 6 6 9 14 18 19 21 22 24 25 25 25 25 24 24 24 23 23 23 23 22 22 22 22 22 22 22 22 21 19 19 19 20 22 23 24 26 27 27 28 29 29 29 30 31 31 31 31 31 31 31 30 30 29 29 31 33 34 35 35 34 35 36 36
5 5 6 6 4 4 3 2 1 2 3 4 3 3 7 6 3 5 6 6 8 8 10 9 7 7 6 4 2 1 2 4 5 6 6 9 15 17 18 21 23 24 24 25 25 25 25 25 25 24 24 24 24 24 24 23 23 23 23 23 24 24 23 22 22 22 23 24 25 25 26 26 28 28 28 29 31 31 31 32 32 33 33 33 33 32 31 31 31 33 34 35 35 35 36 37 36
Wind_Direction
328 330 336 342 341 331 14 54 83 321 76 82 307 149 224 188 160 169 192 218 200 252 209 108 132 138 120 152 176 177 156 157 167 137 198 257 151 158 159 158 163 160 152 148 151 154 154 156 151 139 134 132 120 103 100 103 104 101 104 108 109 111 113 113 113 110 109 109 110 110 103 101 100 100 97 92 89 87 88 87 91 102 101 96 96 92 90 89 91 93 90 89 90 90 91 95 96
327 336 344 350 6 17 283 65 94 330 58 94 267 169 245 358 136 192 192 203 211 214 150 121 108 99 69 85 119 120 96 173 164 166 231 138 149 157 156 159 164 159 153 151 153 156 158 157 150 140 138 134 117 109 107 104 103 102 105 107 109 113 114 113 112 111 109 110 111 106 101 103 101 94 92 90 88 87 87 89 95 103 100 98 96 94 92 91 94 96 93 90 91 94 94 95 96
329 348 354 341 22 44 77 41 87 61 83 177 262 240 229 143 197 212 202 216 204 157 128 127 92 76 33 31 69 101 201 332 152 203 103 144 156 160 158 161 165 160 154 153 153 157 158 154 148 142 140 136 121 118 116 110 104 101 104 106 110 111 113 112 112 112 111 112 109 104 102 103 104 98 93 90 90 92 93 94 98 102 100 99 97 95 94 93 95 98 97 91 92 95 96 97 97
340 4 11 56 53 38 65 42 132 125 139 202 254 253 204 183 208 224 225 230 192 138 94 132 65 58 37 40 50 83 223 288 165 173 140 161 170 161 159 163 167 162 156 155 155 156 154 152 148 144 143 139 130 125 120 114 107 101 103 109 113 110 112 112 110 111 113 112 104 102 102 102 104 100 94 90 91 93 97 100 100 102 101 100 99 96 96 95 96 99 100 95 93 97 98 99 100
359 22 37 78 85 40 95 75 111 119 196 187 177 252 227 202 195 205 238 233 201 195 233 136 77 269 53 115 139 113 231 251 158 170 161 173 173 160 160 165 168 164 158 156 155 156 154 154 149 144 145 144 137 127 120 116 110 105 103 107 113 115 115 112 112 113 113 113 106 102 102 103 102 101 97 95 98 93 94 101 102 104 104 102 100 97 97 96 98 101 101 98 96 97 98 101 104
26 55 51 65 89 114 123 126 156 181 220 167 148 244 226 203 178 175 219 250 227 233 228 157 126 152 67 356 130 169 221 104 151 182 174 173 171 161 161 166 168 164 159 158 157 156 155 155 150 147 149 150 142 130 126 121 114 110 105 105 111 117 117 114 115 116 115 114 110 106 107 107 103 102 97 96 103 99 96 101 105 107 106 103 100 98 98 98 100 103 101 101 100 97 98 106 110
60 69 38 62 73 44 109 168 197 211 226 164 159 231 211 190 164 152 177 197 213 253 251 246 131 112 91 314 69 197 350 107 152 178 178 170 166 162 162 167 168 165 161 161 161 159 158 156 153 151 155 158 146 133 133 129 120 113 109 107 107 112 115 118 119 119 119 114 112 111 110 108 104 99 97 101 105 105 101 103 108 108 106 102 99 99 99 101 102 103 101 100 98 96 102 110 112
64 74 17 88 69 30 89 140 209 201 189 232 225 237 211 172 147 146 182 193 194 240 42 134 89 85 167 37 104 248 357 147 159 161 176 168 165 163 164 169 169 165 163 165 164 163 161 158 158 157 162 163 146 139 140 135 125 116 111 110 110 112 113 117 122 122 121 117 114 115 113 109 106 102 105 112 108 105 101 102 109 110 108 103 98 100 99 101 102 102 101 99 97 97 105 112 116
54 50 45 92 109 38 43 36 233 228 278 279 274 253 213 147 136 148 186 239 233 151 93 176 108 60 213 50 10 274 2 183 175 161 174 171 168 166 167 173 173 167 165 167 166 166 163 162 163 162 166 164 150 147 148 140 131 121 116 113 115 118 120 126 131 129 126 121 119 120 119 115 112 110 116 117 109 108 102 103 112 114 112 107 101 104 104 103 103 103 102 99 99 98 106 116 122
44 30 121 78 95 47 355 303 266 272 276 275 271 243 177 140 133 156 178 181 228 120 137 212 88 64 143 106 269 315 12 209 166 161 175 175 172 169 171 176 178 171 167 169 169 169 166 166 168 168 171 167 157 154 154 148 139 130 122 119 119 122 129 136 141 140 135 129 126 128 126 123 121 120 125 123 116 116 110 111 119 121 119 115 109 110 111 111 112 111 109 107 106 105 110 119 125
38 360 93 75 74 86 220 220 295 287 290 303 308 248 182 145 126 158 155 128 94 105 159 227 100 122 89 338 253 38 342 195 168 166 174 175 175 173 172 177 181 176 172 171 171 172 171 171 174 176 177 175 166 161 160 154 149 142 131 128 125 126 130 134 141 145 144 139 137 139 137 134 132 131 133 129 125 121 118 122 125 127 125 125 122 115 113 115 119 120 121 125 125 124 123 124 126
85 341 68 84 127 195 207 165 302 300 315 333 359 286 162 131 125 201 175 139 122 109 188 208 148 134 82 325 262 314 283 185 176 173 175 175 176 175 175 178 181 180 177 175 174 175 176 176 181 184 183 183 175 168 168 160 157 153 141 137 134 134 133 133 138 145 151 148 145 144 143 142 141 140 137 136 133 123 122 128 130 131 128 132 133 122 118 122 126 126 131 139 137 134 131 129 130
117 135 92 88 155 164 161 142 307 336 332 289 212 276 133 134 214 206 163 127 126 132 225 209 152 105 107 263 284 320 244 189 180 176 179 175 177 178 179 181 182 183 181 179 178 179 180 181 186 189 187 187 181 175 173 167 165 162 152 147 142 141 138 139 139 146 156 155 150 147 145 149 148 139 136 136 131 129 134 136 136 134 130 134 136 127 123 131 135 132 135 139 136 134 131 131 132
138 147 112 108 72 119 143 128 328 103 280 264 220 165 144 173 222 194 146 118 177 170 203 183 148 111 139 259 306 301 206 186 181 179 180 176 179 181 184 185 184 184 183 183 183 184 184 185 189 190 190 189 186 182 179 175 172 169 163 156 149 149 145 144 143 146 158 160 155 154 153 157 153 141 138 137 136 144 145 140 137 133 133 143 145 137 129 134 139 135 138 137 134 134 129 129 131
142 126 92 107 46 38 151 132 122 132 242 240 165 143 161 247 152 173 166 142 206 215 118 134 140 152 173 161 250 262 188 180 182 179 178 178 181 184 189 190 187 186 185 186 187 189 188 187 189 191 193 191 189 186 184 182 179 176 173 166 158 156 153 149 148 150 158 163 162 161 161 163 163 155 150 147 149 156 152 144 139 134 144 156 152 142 132 135 146 146 146 142 137 136 130 127 124
123 110 71 90 93 140 160 137 109 116 250 223 140 114 149 257 144 172 232 143 146 284 48 165 163 140 164 163 213 265 182 177 179 177 177 179 183 186 193 193 191 190 189 191 192 193 191 190 191 193 194 192 192 190 188 187 184 184 181 177 169 165 165 159 156 157 160 165 169 170 168 168 170 170 165 157 157 162 163 156 143 140 153 162 156 155 147 146 156 159 157 155 151 146 138 134 127
73 81 65 67 139 197 179 171 165 160 244 237 255 148 150 259 259 206 276 76 115 114 359 225 215 155 171 193 273 239 171 174 175 174 175 178 181 184 189 193 192 192 193 196 197 197 195 195 195 195 195 193 194 193 193 192 188 189 188 185 180 176 176 171 169 167 167 170 175 178 177 175 175 177 174 163 163 167 169 164 151 150 156 158 162 166 160 159 166 168 166 163 160 155 148 142 137
55 78 95 115 170 199 181 178 193 171 213 216 207 171 155 201 222 205 15 37 55 91 322 322 298 252 209 245 268 162 165 171 172 172 174 177 180 181 185 192 193 195 196 198 201 201 199 200 200 198 197 195 196 198 199 196 193 193 194 192 189 187 184 183 181 177 177 177 179 183 184 184 182 182 180 170 171 176 177 173 164 162 158 154 165 169 165 169 173 174 172 167 164 162 159 152 147
83 111 103 211 200 205 187 173 187 168 178 187 180 160 170 199 177 150 178 337 25 130 263 340 325 261 258 294 176 161 164 168 172 174 178 181 184 186 187 192 196 198 199 200 203 204 203 203 203 202 201 199 198 201 203 201 197 197 197 197 195 195 192 191 191 187 185 183 183 186 189 190 188 185 182 176 176 180 184 183 177 172 164 159 168 170 170 176 179 181 178 176 175 172 173 168 163
142 119 101 238 215 219 212 178 186 193 149 147 176 165 174 238 186 163 182 154 80 193 219 243 261 245 249 294 155 157 162 166 174 179 183 190 192 193 194 196 200 201 202 204 205 207 207 206 206 205 205 203 201 202 205 204 202 201 201 200 200 201 199 197 197 196 193 191 189 191 193 191 189 187 184 181 180 183 185 186 188 183 176 175 179 174 174 182 186 188 186 185 185 184 186 183 181
144 116 170 229 197 178 217 192 196 192 157 138 154 130 154 248 213 154 147 129 278 246 223 202 212 212 182 170 159 158 162 167 177 183 188 194 197 200 202 204 206 206 206 208 209 210 210 209 209 207 208 207 205 205 206 207 205 205 206 205 204 205 205 203 201 203 201 198 197 197 198 197 195 191 187 187 187 189 189 188 193 191 187 189 193 186 181 188 193 195 193 190 191 192 195 194 192
101 123 190 198 146 113 256 219 192 149 131 116 123 155 188 212 173 153 148 159 236 237 226 213 206 185 160 163 164 162 165 172 182 188 193 196 199 204 206 209 210 210 210 211 213 213 212 212 212 210 210 211 210 209 209 208 209 208 210 211 209 207 209 208 207 207 208 206 204 204 204 205 204 201 196 194 195 197 198 196 196 197 196 196 199 198 193 196 200 200 199 196 196 198 200 200 197
115 263 218 194 186 126 316 290 237 132 125 137 154 185 160 116 269 192 169 203 222 223 251 241 212 167 151 152 159 166 173 181 189 194 197 198 201 203 205 207 209 210 211 214 217 216 214 214 215 214 213 214 213 214 212 210 212 212 213 216 215 211 211 212 212 212 213 212 211 211 211 212 212 209 205 203 203 204 205 204 203 204 202 200 202 202 201 203 205 205 205 204 203 203 205 206 204
96 171 293 173 178 358 314 307 248 134 138 169 171 118 105 190 215 71 226 234 233 265 305 278 190 150 144 149 165 178 182 189 196 199 201 202 204 205 206 208 210 211 212 216 219 219 218 216 216 216 215 216 216 216 216 214 214 215 215 218 221 218 215 216 217 216 217 217 217 217 216 218 218 217 215 211 211 211 211 211 210 211 209 206 205 205 206 208 209 209 210 211 211 212 211 212 214
79 159 198 125 121 322 314 19 59 91 123 140 116 109 257 230 182 105 248 250 267 288 7 74 145 144 152 163 177 185 188 197 202 204 207 209 210 210 211 212 212 214 215 217 219 221 221 219 218 218 218 218 218 217 219 217 216 217 216 217 222 223 220 220 221 220 221 222 221 222 220 221 222 223 222 219 217 216 215 216 216 217 216 212 210 208 209 212 214 214 214 216 217 218 219 219 221
172 139 151 103 41 323 343 67 36 34 48 57 111 67 299 228 174 272 251 261 292 342 83 104 137 155 178 177 182 186 191 201 205 207 210 213 214 216 217 215 215 216 219 219 219 221 223 222 220 220 221 220 219 218 219 220 219 219 219 219 221 225 225 224 224 223 224 225 226 226 225 225 226 227 227 225 224 223 221 220 220 220 220 219 216 214 213 216 219 220 219 220 222 223 224 225 226
145 112 101 69 18 329 16 76 16 8 35 21 149 213 304 300 345 266 265 308 303 99 91 131 158 179 193 187 192 192 197 205 205 206 209 213 216 220 220 217 218 220 220 221 221 222 222 224 224 223 223 223 222 219 219 222 222 222 223 222 221 225 228 227 227 226 226 227 229 229 230 229 228 230 232 231 229 228 227 225 224 224 225 224 222 219 217 218 222 226 227 226 226 227 227 229 230
110 120 99 18 358 360 20 59 13 4 81 18 132 168 309 351 346 235 258 328 317 130 120 173 186 213 208 200 205 198 210 213 207 206 208 212 215 218 219 219 220 221 222 223 223 222 223 224 225 225 224 224 223 221 220 222 224 225 225 226 226 226 228 229 230 230 228 228 230 230 231 232 231 231 232 233 234 233 232 231 229 228 228 229 228 225 223 222 223 227 230 230 230 230 230 231 231
117 115 113 351 359 20 357 15 339 355 104 342 109 84 302 246 234 247 271 338 20 119 156 212 215 239 237 225 226 214 223 218 210 216 217 217 218 219 221 223 222 222 224 226 225 224 225 225 225 226 226 225 225 223 222 222 225 227 226 228 230 230 228 228 231 233 233 231 230 231 232 233 233 233 233 234 235 235 235 235 235 234 233 233 232 231 227 226 226 228 230 231 231 231 232 233 232
131 58 102 21 9 1 329 341 322 27 95 334 115 222 283 251 252 265 298 332 2 102 224 236 234 249 257 247 240 235 233 220 217 223 224 224 224 224 227 229 226 226 228 228 227 227 228 227 226 226 226 226 227 226 225 223 224 227 229 230 231 234 233 231 232 235 238 237 234 232 231 233 234 235 235 236 237 237 239 239 240 240 239 237 236 235 233 229 230 230 231 231 232 234 236 237 236
91 55 62 50 95 258 303 328 346 131 94 18 96 186 271 267 272 276 309 321 248 253 263 253 248 249 251 250 245 245 240 228 229 231 231 232 231 230 232 233 231 231 232 230 231 230 230 230 228 226 226 226 227 228 228 227 227 228 230 232 232 235 237 237 237 236 239 243 243 239 234 233 235 237 238 238 238 238 240 241 242 244 245 243 239 237 235 232 231 231 232 231 231 233 235 237 237
44 99 323 355 163 258 310 330 28 145 287 33 91 210 273 269 271 274 324 13 164 237 274 279 269 258 246 246 242 245 251 243 242 242 239 238 236 235 235 236 235 234 234 233 234 233 232 232 230 229 227 226 226 228 229 229 230 231 232 234 234 235 237 239 240 240 240 242 245 246 243 238 236 239 241 242 242 242 243 244 242 242 245 246 243 240 236 233 233 232 232 231 232 232 233 234 234
1 101 175 248 169 266 313 332 335 54 110 12 70 217 270 282 275 280 322 48 94 239 274 281 272 266 252 241 239 241 254 254 248 245 242 240 238 238 237 238 238 237 236 236 235 235 234 234 232 231 230 228 227 227 229 229 230 232 233 235 236 237 238 239 241 242 242 242 244 247 247 244 240 240 241 242 243 244 246 248 247 246 247 247 244 242 239 236 233 231 230 231 233 235 234 233 233
310 44 122 219 187 207 280 290 322 28 98 298 25 238 254 273 283 289 293 17 9 284 274 277 269 268 259 246 246 242 245 250 245 241 239 239 239 239 239 240 240 239 239 239 237 236 237 235 234 234 232 230 229 228 229 230 230 231 233 235 236 237 238 240 241 242 242 242 243 245 248 248 245 242 243 243 243 242 244 246 246 246 246 247 245 244 242 238 235 233 232 232 233 236 237 236 235
193 176 146 214 212 204 247 251 274 19 68 207 344 290 266 277 285 290 279 182 251 272 271 278 271 266 264 258 252 246 245 247 245 243 242 242 241 242 242 242 242 242 241 240 239 238 238 237 236 236 235 231 230 230 230 230 230 231 232 234 235 236 237 238 240 241 242 243 243 245 246 247 246 243 244 245 244 243 243 243 242 239 237 236 235 237 236 232 231 231 231 231 231 233 238 239 237
170 177 148 157 177 222 238 247 272 9 96 224 242 250 272 282 288 289 281 139 232 275 278 276 268 263 263 259 252 250 248 249 254 257 255 252 249 249 248 246 246 245 244 242 241 239 237 237 236 236 236 233 230 229 228 228 227 228 230 231 233 234 235 236 236 237 239 240 243 246 248 249 248 247 246 245 244 246 246 244 242 239 237 234 230 229 229 228 229 229 229 230 228 228 231 234 235
137 130 106 140 168 244 252 265 307 355 130 246 244 263 277 275 279 278 279 321 304 276 276 272 266 264 262 260 260 256 249 255 271 274 267 261 258 256 253 252 249 247 246 243 241 239 238 237 234 234 236 233 229 227 225 225 224 224 226 228 231 233 234 235 237 238 238 239 242 244 247 249 248 248 246 243 243 245 246 246 246 243 243 241 238 237 237 234 232 231 229 227 226 225 225 227 230
98 128 118 94 184 239 276 261 318 350 128 259 11 335 282 269 273 271 275 295 277 259 259 266 267 266 265 264 266 265 263 272 281 275 270 265 262 259 254 251 246 245 246 243 240 240 239 235 234 235 235 231 230 228 225 225 226 224 225 228 231 233 236 237 239 241 242 244 244 244 245 245 244 245 244 244 242 242 242 245 248 246 244 243 240 239 238 232 229 228 226 226 225 224 225 225 221
87 110 124 139 219 254 291 300 334 3 55 267 356 344 285 272 271 269 268 265 263 258 250 256 265 271 270 260 262 274 282 288 284 272 270 269 265 259 254 249 244 245 246 244 242 241 238 235 235 236 234 232 232 231 228 229 229 228 228 230 232 233 237 240 242 244 245 246 247 246 244 242 241 241 242 243 242 242 244 245 245 243 243 246 244 241 237 231 230 230 228 228 226 222 225 226 221
93 108 129 172 250 160 227 298 339 8 71 258 328 317 286 290 296 287 277 267 278 287 271 263 256 255 263 265 266 272 274 279 283 283 286 285 278 265 254 248 245 244 244 242 241 239 237 237 237 235 234 233 233 232 231 232 232 231 231 233 235 236 238 241 244 245 246 246 247 247 246 243 242 242 243 242 240 242 245 246 244 240 242 246 243 240 238 236 238 238 232 229 226 220 221 228 228
78 139 137 159 200 175 198 287 336 358 31 30 10 334 296 319 333 299 306 339 313 313 317 303 286 264 271 284 278 261 259 268 279 289 299 301 293 282 268 257 250 245 243 242 241 240 240 240 239 237 235 234 234 234 233 231 230 230 230 231 233 236 239 240 240 242 242 244 245 246 246 245 245 245 244 243 242 243 246 247 246 244 244 243 238 236 238 239 240 238 232 226 223 222 222 227 229
288 208 171 168 169 159 145 42 53 35 9 354 24 20 293 318 327 277 303 348 324 330 346 323 314 316 312 307 293 278 277 274 271 281 291 299 301 297 290 275 260 255 252 249 245 243 243 243 242 240 238 237 236 235 233 231 230 229 227 226 227 229 233 236 236 239 240 242 244 245 246 246 246 245 244 244 244 245 246 248 249 247 244 241 239 240 243 244 241 236 231 226 225 226 226 225 229
196 227 169 143 129 125 127 102 79 87 255 325 44 106 261 316 316 278 314 337 315 330 349 335 331 338 343 330 314 313 307 295 289 289 289 295 307 315 321 314 278 271 266 255 249 246 244 243 242 241 241 240 238 237 235 233 231 230 229 229 229 228 231 237 240 242 243 245 247 248 249 249 248 247 247 246 245 245 246 247 246 244 242 244 248 250 249 245 240 235 233 232 231 230 226 224 228
198 222 124 121 119 127 139 107 89 192 230 330 16 101 215 301 281 278 325 332 318 340 345 337 346 345 345 344 339 344 334 319 311 306 306 308 331 346 350 1 355 333 304 255 253 254 251 246 243 242 242 241 241 239 237 235 233 232 233 233 233 233 236 242 246 247 248 249 250 251 252 252 251 250 249 248 247 246 246 245 243 242 243 247 248 249 248 245 240 238 238 236 233 231 228 227 230
232 190 116 119 120 124 123 94 90 17 21 313 327 51 161 271 275 302 346 329 314 337 329 321 334 336 339 344 344 345 337 324 293 287 313 338 4 16 20 29 28 25 33 34 272 264 255 246 241 240 241 242 242 241 240 239 237 236 236 235 236 238 241 245 247 249 251 251 251 252 253 253 253 253 253 252 250 247 245 245 245 245 245 243 241 241 244 247 245 241 240 239 236 235 235 233 231
185 141 98 80 77 81 78 87 104 51 44 242 276 15 134 265 286 311 2 306 271 286 295 296 305 316 326 337 341 337 334 336 315 298 329 352 13 25 33 39 37 36 41 50 56 51 246 233 235 237 240 241 242 242 242 242 240 238 238 238 239 242 244 246 247 249 251 252 253 253 253 254 254 255 254 254 253 250 247 246 246 246 246 244 244 245 246 247 246 244 242 240 238 238 238 234 231
139 113 77 63 40 36 50 56 84 66 337 252 259 307 196 268 285 272 227 232 214 196 292 321 323 332 340 345 348 348 349 355 358 359 10 22 33 38 41 42 40 39 41 44 47 48 51 347 237 239 242 243 243 244 244 245 244 241 241 242 244 246 248 248 249 250 251 252 253 254 255 256 256 256 256 255 254 253 252 250 248 248 248 248 249 250 250 249 248 248 246 243 241 239 238 235 232
104 92 90 81 7 9 26 0 39 98 256 261 271 290 162 210 265 254 242 258 226 182 146 7 343 339 339 340 345 349 350 354 9 21 23 32 38 37 40 43 42 43 42 40 38 35 33 20 328 268 258 254 253 251 251 251 249 248 249 249 250 251 252 252 253 255 256 255 257 259 259 259 259 258 257 256 255 256 256 254 252 250 249 249 250 251 253 253 253 251 248 244 243 242 241 238 236
72 97 102 94 10 10 5 318 355 199 243 269 285 269 192 231 249 256 263 260 241 215 194 244 316 319 322 331 338 338 343 359 18 28 28 32 33 29 32 35 37 42 44 42 39 32 26 14 349 322 299 281 272 268 265 263 260 259 259 257 257 258 257 257 258 259 261 261 262 263 263 263 263 262 261 260 262 262 261 259 257 254 252 251 251 252 253 254 254 254 251 246 243 242 241 239 238
125 135 128 126 117 87 253 269 287 254 258 291 290 269 249 270 262 246 249 249 237 225 215 232 264 279 292 306 311 314 339 12 23 32 36 34 28 27 30 31 32 35 37 38 38 32 26 17 358 343 330 307 292 286 281 277 275 273 270 267 266 264 263 263 263 264 265 265 266 266 266 267 266 266 267 268 270 268 266 264 263 261 258 256 253 253 253 253 254 256 257 255 253 252 250 246 245
161 155 127 142 154 146 196 217 199 232 270 300 295 273 190 214 261 228 232 260 270 244 235 245 260 263 273 294 308 327 1 23 28 37 41 32 30 31 31 30 29 29 31 33 32 29 24 17 3 351 345 330 314 306 297 293 291 288 282 277 274 271 269 269 268 268 268 268 269 268 269 269 270 271 272 273 273 271 269 268 267 266 264 262 259 256 254 254 255 256 258 259 259 260 259 256 254
219 130 105 153 186 135 135 179 171 169 304 295 269 243 211 213 282 280 281 301 298 308 323 258 271 285 324 17 12 16 23 27 29 37 33 24 29 32 30 30 29 28 29 29 29 28 25 20 12 3 358 348 334 325 316 311 306 300 294 289 285 281 277 274 273 273 272 272 272 272 272 273 273 275 275 275 274 273 272 271 269 269 268 266 265 263 260 257 255 255 256 257 257 258 259 260 259
152 128 165 209 167 113 112 181 57 78 170 268 234 247 290 320 295 314 30 4 305 11 47 104 140 71 72 68 39 35 35 33 32 30 25 21 27 31 31 31 30 29 29 29 30 30 26 23 18 14 11 6 359 348 338 331 321 314 309 302 297 292 287 283 281 280 280 279 277 275 275 276 276 276 277 277 276 274 273 272 270 270 269 268 267 266 264 262 259 257 256 257 257 258 259 259 259
121 174 202 185 121 95 106 141 14 41 226 277 306 225 286 336 258 324 51 131 221 28 76 105 110 104 107 106 56 44 36 37 38 28 25 26 30 32 34 35 34 33 33 32 34 34 33 29 22 17 14 10 6 0 354 348 339 332 327 319 312 305 299 294 290 288 285 282 280 279 278 278 278 279 279 278 276 275 274 273 272 271 270 268 267 266 266 264 262 260 258 257 258 257 256 256 256
118 179 170 115 134 150 93 137 155 123 219 283 309 268 255 199 223 292 172 172 185 158 126 120 122 131 138 132 98 64 44 38 35 31 26 28 31 31 32 33 35 37 37 36 37 37 36 34 28 24 19 14 11 6 1 356 348 343 339 334 328 321 313 307 302 298 292 287 285 284 282 282 283 282 281 279 277 277 276 275 274 274 272 269 267 266 266 265 262 261 260 259 258 257 256 258 259
45 98 108 79 128 159 158 149 161 172 189 261 311 322 261 226 218 225 214 194 176 157 140 141 150 158 158 138 112 76 53 40 27 27 26 31 34 33 34 34 35 38 40 40 39 38 37 35 32 29 24 21 18 13 8 1 355 350 346 344 340 334 326 319 314 307 301 298 296 293 289 288 288 286 284 282 280 279 278 277 276 275 272 270 268 266 265 263 262 261 261 261 260 259 257 258 259
97 116 158 174 68 111 153 97 115 140 156 181 267 299 267 250 211 196 210 197 178 161 145 157 174 172 166 142 115 86 54 26 12 23 30 33 31 29 35 38 39 41 41 41 40 39 38 37 34 31 26 24 21 18 14 8 2 358 354 352 348 344 339 331 325 318 312 311 308 303 300 296 292 290 287 285 283 282 281 279 277 275 272 270 267 266 265 261 259 259 260 261 261 259 257 258 258
159 168 184 176 145 124 150 248 241 122 137 167 175 260 270 259 186 186 205 188 189 176 149 158 184 175 159 135 126 125 17 358 358 8 20 32 28 25 33 40 40 40 37 36 36 35 35 33 31 29 26 24 21 18 15 10 8 6 2 360 356 352 348 342 337 331 325 322 319 315 311 304 299 297 293 288 286 285 283 281 278 275 273 272 270 267 265 261 258 258 259 259 259 257 257 257 257